Location: Zagreb
(45.8000°N, 16.0000°E)
Time: 19:04:55
(UTC+02:00)

SR - Pass Details

Date: 19 August 2020
Orbit: 583 x 873 km, 66.7° (Epoch: 28 September)

Event Time Altitude Azimuth Distance (km) Brightness Sun altitude
Rises 21:42:47 0° 251° (WSW) 2,900 ? -16.9°
Reaches altitude 10° 21:45:34 10° 268° (W) 1,960 ? -17.3°
Maximum altitude 21:48:53 21° 318° (NW) 1,367 ? -17.7°
Drops below altitude 10° 21:52:08 10° 7° (N) 1,916 ? -18.2°
Sets 21:54:50 0° 25° (NNE) 2,815 ? -18.5°
